Location: Mt. Graham
(32.7020°N, 109.8880°W)
Time: 04:02:22
(UTC-07:00)

OTV 5 (USA 277) - Visible Passes

Search period start: 20 September 2017 00:00
Search period end: 30 September 2017 00:00
Orbit: 404 x 417 km, 43.0° (Epoch: 07 September)

Date Brightness Start Highest point End Pass type
(mag) Time Alt. Az. Time Alt. Az. Time Alt. Az.
20 Sep ? 04:05:17 24° NE 04:05:17 24° NE 04:06:45 10° NE visible
20 Sep ? 05:39:06 10° NW 05:41:18 17° NNW 05:43:30 10° NNE visible
21 Sep ? 04:49:27 19° NNW 04:50:04 20° NNW 04:52:35 10° NE visible
22 Sep ? 04:00:50 15° NNE 04:00:50 15° NNE 04:01:40 10° NE visible
22 Sep ? 05:35:10 10° NW 05:36:54 14° N 05:38:38 10° NNE visible
23 Sep ? 04:44:57 14° NNW 04:45:37 15° N 04:47:33 10° NNE visible
24 Sep ? 03:56:18 11° NNE 03:56:18 11° NNE 03:56:33 10° NNE visible
24 Sep ? 05:30:40 10° NNW 05:32:32 14° N 05:34:24 10° NE visible
25 Sep ? 04:40:25 13° NNW 04:41:15 13° N 04:42:58 10° NNE visible
26 Sep ? 05:25:38 10° NNW 05:28:06 19° NNE 05:30:34 10° ENE visible
27 Sep ? 04:36:02 15° N 04:36:52 16° N 04:39:01 10° NE visible
28 Sep ? 05:20:30 10° NW 05:23:32 34° NNE 05:26:33 10° E visible
29 Sep ? 04:31:56 24° N 04:32:22 25° NNE 04:35:08 10° ENE visible
